Location: Rometta
(44.2000°N, 10.0500°E)
Time: 22:31:58
(UTC+00:00)

Cosmos 1937 Rocket - Pass Details

Date: 20 January 2021
Orbit: 746 x 780 km, 74.0° (Epoch: 04 March)

Event Time Altitude Azimuth Distance (km) Brightness Sun altitude
Rises 18:51:14 0° 196° (SSW) 3,236 7.0 -28.0°
Reaches altitude 10° 18:53:36 10° 196° (SSW) 2,317 6.1 -28.4°
Enters shadow 18:56:44 37° 193° (SSW) 1,184 4.5 -29.0°
